SL-8 DEB

Satellite information

Favourite Embed

Satellite Type and Status

DEBRISIN ORBIT

Key statistics

Satellite SL-8 DEB at a glance.

Uptime

22188

Days in orbit

Revolutions

≈ 12.5

Per day

Orbit

MEO

Medium Earth Orbit

Inclination

56.2

Latest

Satellite identification and parameters

Extended collection of information and parameters for SL-8 DEB.

Object identification

Identified? True

Debris? True

Object name: SL-8 DEB

International designator: 1965-020ED

Object number (NORAD): 1634

Object ID (CCSDS): 1634

Country: COMMONWEALTH OF INDEPENDENT STATES (CIS)

Current information (Y/N): Y

RCS size: SMALL

Orbital parameters

Period: 115.34 minutes

Inclination: 56.1532 deg

SMA: 7848.982 km

Apoapsis: 2140.291 km

Periapsis: 801.403 km

RAAN: 213.4468 deg

Eccentricy: 0.0852905

Argument of periapsis: 188.0339 deg

Mean anomaly: 170.613 deg

Mean motion: 12.48483355 rev/day

Mean motion (dot): 0.00000004 rev/day2

B* drag term: 0.0001767 1/REarth

Two-line elements (TLE)

Creation date: Dec. 12, 2025, 7:06 a.m.

Reference frame: TEME

Reference center: EARTH

Epoch: Dec. 11, 2025, 11:58 p.m. UTC

TLE line 0: 0 SL-8 DEB

TLE line 1: 1 1634U 65020ED 25345.99908193 .00000004 00000-0 17670-3 0 9992

TLE line 2: 2 1634 56.1532 213.4468 0852905 188.0339 170.6130 12.48483355739108

Live tracking on map

Real-time ground track for satellite SL-8 DEB.

In-orbit conjunctions

A list of the most updated potential collisions computed for object SL-8 DEB.

Target Orbit TCA Probability of collision Miss distance Type
COSMOS 1694 LEO 2025-01-08 01:46:11 0.0001047183 296.0 (m) PAYLOAD
CZ-6A DEB SSO 2024-07-13 15:58:17 0.0005286518 24.0 (m) DEBRIS

Associated space launch

The Strela-1 satellites were prototype store-dump communications satellites for tactical communication.

SL-8 DEB was lifted into orbit during the mission ‘Kosmos 65S3 | Strela-1 12,13,14’, on board a Kosmos 65S3 space rocket.

The launch took place on March 15, 1965, 11 a.m. from 41/15.

For more information about the launch, click the button.

Launch to space Kosmos 65S3 | Strela-1 12,13,14
Kosmos 65S3 | Strela-1 12,13,14

Agency: N/A

Status: Launch Successful

Launch date: March 15, 1965, 11 a.m. UTC

Rocket: Kosmos 65S3

Launch pad: 41/15

Location: Baikonur Cosmodrome, Republic of Kazakhstan

...

Latest news about this satellite

There are no fresh news available about this satellite. Check back as we update our databases every day.


Newsletter sign-up

Weekly statistics, charts and insights to help you stay on top of the space industry.